DW9584 Weather Reports


time (UTC)temp
F
wind
direction
speed
knots
gust
knots
rain 1hr
in
rain 24hr
in
rain mn
in
humidity
%
barometer
mb
20260506193022 65 223 1.7 4.3 0.00 0.07 0.07 82 1008.1
20260506191522 64 174 0.0 7.0 0.00 0.07 0.07 83 1008.3
20260506190019 64 191 0.9 7.0 0.00 0.07 0.07 83 1008.4
20260506184519 64 170 0.0 8.7 0.00 0.07 0.07 84 1008.3
20260506183026 63 165 1.7 6.1 0.00 0.07 0.07 85 1008.6
20260506181519 63 233 0.0 3.5 0.00 0.07 0.07 86 1008.6
20260506180009 63 151 0.0 5.2 0.00 0.07 0.07 87 1008.9
20260506174507 62 176 0.0 4.3 0.00 0.07 0.07 87 1008.9
20260506173007 62 144 1.7 6.1 0.00 0.07 0.07 87 1008.9
20260506171538 62 209 0.9 7.0 0.01 0.07 0.07 88 1009.1
20260506170024 62 340 0.9 7.0 0.03 0.07 0.07 88 1009.1
20260506164522 62 176 0.9 4.3 0.05 0.07 0.07 89 1009.2
20260506163018 63 79 0.9 4.3 0.06 0.07 0.07 89 1009.3
20260506161514 62 262 0.0 5.2 0.06 0.06 0.06 89 1009.7
20260506160014 62 254 0.0 2.6 0.04 0.04 0.04 88 1010.3
20260506154508 63 178 0.0 1.7 0.02 0.02 0.02 85 1010.3
20260506153005 63 234 0.9 3.5 0.01 0.01 0.01 82 1010.4
20260506151533 65 223 1.7 7.0 0.00 0.00 0.00 77 1010.2
20260506150029 66 152 0.9 9.6 0.00 0.00 0.00 73 1010.0
20260506144524 67 265 0.9 4.3 0.00 0.00 0.00 72 1010.0
20260506143037 67 292 0.9 5.2 0.00 0.00 0.00 72 1010.1
20260506141518 67 178 1.7 5.2 0.00 0.00 0.00 68 1010.2
20260506140016 68 188 2.6 10.4 0.00 0.00 0.00 66 1010.2
20260506134510 67 170 1.7 8.7 0.00 0.00 0.00 68 1010.1
20260506133026 66 174 2.6 13.9 0.00 0.00 0.00 70 1010.1
20260506131529 66 210 2.6 7.0 0.00 0.00 0.00 70 1010.1
20260506130025 66 156 1.7 6.1 0.00 0.00 0.00 71 1010.4
20260506124521 66 200 1.7 9.6 0.00 0.00 0.00 71 1010.4
20260506123021 66 217 0.9 6.1 0.00 0.00 0.00 74 1010.2
20260506121520 65 241 0.9 4.3 0.00 0.00 0.00 74 1010.2
20260506120018 65 143 0.0 5.2 0.00 0.00 0.00 75 1010.1
20260506114519 63 104 0.0 3.5 0.00 0.00 0.00 78 1010.1
20260506113026 64 80 0.0 3.5 0.00 0.00 0.00 78 1010.2
20260506111527 63 159 0.9 5.2 0.00 0.00 0.00 78 1010.2
20260506110034 63 85 0.9 2.6 0.00 0.00 0.00 78 1010.1
20260506104527 63 81 0.0 2.6 0.00 0.00 0.00 79 1010.0
20260506103024 63 50 0.0 2.6 0.00 0.00 0.00 79 1010.0
20260506101543 62 93 0.9 4.3 0.00 0.00 0.00 80 1010.1
20260506100019 62 34 0.9 1.7 0.00 0.00 0.00 80 1010.0
20260506094528 62 61 0.0 2.6 0.00 0.00 0.00 80 1010.1
20260506093028 63 226 0.0 5.2 0.00 0.00 0.00 79 1010.0
20260506091517 63 210 0.0 2.6 0.00 0.00 0.00 78 1009.9
20260506090009 64 107 0.9 3.5 0.00 0.00 0.00 78 1010.1
20260506084516 64 173 0.0 4.3 0.00 0.00 0.00 77 1010.1
20260506083026 64 359 0.9 5.2 0.00 0.00 0.00 77 1010.1
20260506081524 64 44 0.0 1.7 0.00 0.00 0.00 78 1010.2
20260506073016 64 202 0.0 1.7 0.00 0.00 0.00 78 1010.3
20260506071517 65 1 0.0 2.6 0.00 0.00 0.00 76 1010.3
20260506061526 65 54 0.0 1.7 0.00 0.00 0.00 76 1010.5
20260506044528 67 201 0.0 3.5 0.00 0.00 0.00 69 1011.1
20260506043028 66 122 0.0 3.5 0.00 0.00 0.00 69 1011.1
20260506041531 66 129 0.0 3.5 0.00 0.00 0.00 69 1011.2
20260506040028 66 169 0.9 2.6 0.00 0.00 0.00 68 1011.1
20260506034526 67 276 0.0 2.6 0.00 0.00 0.00 67 1011.1
20260506033027 67 231 0.0 1.7 0.00 0.00 0.00 67 1010.9
20260506031523 67 318 0.0 2.6 0.00 0.00 0.00 66 1011.0
20260506030023 67 204 0.0 2.6 0.00 0.00 0.00 65 1011.1
20260506024527 67 174 0.9 3.5 0.00 0.00 0.00 65 1011.1
20260506023025 67 348 0.0 1.7 0.00 0.00 0.00 65 1011.1
20260506021528 68 329 0.0 1.7 0.00 0.00 0.00 63 1011.1
20260506020026 68 124 0.0 3.5 0.00 0.00 0.00 61 1011.0
20260506014532 69 217 0.0 1.7 0.00 0.00 0.00 58 1010.9
20260506013028 70 276 0.0 2.6 0.00 0.00 0.00 55 1010.7
20260506011521 71 123 0.0 1.7 0.00 0.00 0.00 51 1010.5
20260506010028 72 248 0.0 1.7 0.00 0.00 0.00 50 1010.3
20260506004537 72 1 0.0 2.6 0.00 0.00 0.00 48 1010.1
20260506003031 74 182 1.7 5.2 0.00 0.00 0.00 46 1010.1
20260506001514 74 248 0.9 3.5 0.00 0.00 0.00 46 1009.9
20260506000016 74 262 0.0 2.6 0.00 0.00 0.00 46 1009.6
20260505234514 75 122 1.7 7.8 0.00 0.00 0.00 45 1009.6
20260505233027 76 185 0.9 4.3 0.00 0.00 0.00 43 1009.5
20260505231525 76 103 0.0 1.7 0.00 0.00 0.00 45 1009.4
20260505230026 77 262 0.9 5.2 0.00 0.00 0.00 43 1009.3
20260505224532 77 67 0.9 6.1 0.00 0.00 0.00 43 1009.3
20260505223028 77 227 0.0 7.8 0.00 0.00 0.00 42 1009.3
20260505221516 79 360 0.9 11.3 0.00 0.00 0.00 41 1009.4
20260505220025 79 228 2.6 11.3 0.00 0.00 0.00 37 1009.3
20260505214547 80 269 1.7 7.8 0.00 0.00 0.00 37 1009.2
20260505213043 80 220 2.6 8.7 0.00 0.00 0.00 35 1009.2
20260505211526 80 117 0.9 9.6 0.00 0.00 0.00 35 1009.1
20260505210029 80 150 3.5 12.2 0.00 0.00 0.00 34 1009.1
20260505204530 81 293 1.7 11.3 0.00 0.00 0.00 34 1009.2
20260505203022 81 68 1.7 13.0 0.00 0.00 0.00 33 1009.2
20260505201523 82 229 2.6 11.3 0.00 0.00 0.00 32 1009.2
20260505200017 81 291 3.5 12.2 0.00 0.00 0.00 31 1009.1
20260505194527 82 180 2.6 14.8 0.00 0.00 0.00 33 1009.1